Location: Bow
(51.5261°N, 0.0167°W)
Time: 22:21:27
(UTC+00:00)

Cosmos 1833 Rocket - Pass Details

Date: 18 September 2020
Orbit: 831 x 841 km, 71.0° (Epoch: 20 October)

Event Time Altitude Azimuth Distance (km) Brightness Sun altitude
Rises 21:42:05 0° 327° (NNW) 3,408 7.0 -30.2°
Reaches altitude 10° 21:44:33 10° 325° (NW) 2,470 6.0 -30.4°
Enters shadow 21:49:27 56° 278° (W) 994 3.1 -30.9°
